Location: Fort Collins
(40.5850°N, 105.0840°W)
Time: 02:20:16
(UTC-06:00)

Daily predictions for brighter satellites

Satellite Brightness Start Highest point End
(mag) Time Altitude Azimuth Time Altitude Azimuth Time Altitude Azimuth
H-2A R/B 3.9 00:04:13 10° NNE 00:06:20 29° NE 00:06:20 29° NE
Cosmos 2221 3.4 00:05:11 10° N 00:08:31 44° NE 00:08:31 44° NE
Cosmos 2026 Rocket 3.8 00:10:43 66° ESE 00:11:07 68° E 00:17:09 10° NNE
Cosmos 2195 Rocket 4.3 00:10:59 71° SSE 00:11:36 79° E 00:17:51 10° N
Cosmos 1627 Rocket 4.3 00:14:01 74° SSE 00:14:34 82° E 00:20:43 10° N
Lacrosse 4 Rocket 4.1 00:12:10 10° W 00:14:34 15° NW 00:16:59 10° NNW
ATLAS 3B R/B 4.3 00:08:44 10° WSW 00:15:42 36° NW 00:22:31 10° NNE
Okean 3 Rocket 4.1 00:17:23 56° NNW 00:17:23 56° NNW 00:21:02 10° N
ISS -0.2 00:15:59 10° NW 00:18:04 16° NNW 00:20:08 10° NNE
NOSS 3-2 (A) 3.6 00:19:13 56° ESE 00:19:13 56° ESE 00:25:20 10° NE
Cosmos 1707 4.0 00:21:54 40° N 00:21:54 40° N 00:24:31 10° N
Cosmos 614 Rocket 4.2 00:20:55 63° W 00:21:05 63° WNW 00:26:16 10° NNE
CZ-4B R/B 3.3 00:24:39 32° N 00:24:39 32° N 00:26:48 10° N
Cosmos 1607 4.1 00:24:11 52° WSW 00:25:40 70° NW 00:31:54 10° NNE
Cosmos 2082 Rocket 3.9 00:28:50 20° E 00:28:50 20° E 00:31:57 10° NE
ALOS 2 3.3 00:40:13 52° NNW 00:40:13 52° NNW 00:43:35 10° NNW
Cosmos 1833 Rocket 4.5 00:40:04 19° E 00:40:04 19° E 00:43:10 10° NE
Meteor 1-24 Rocket 3.7 00:40:40 82° SSW 00:40:58 89° W 00:46:57 10° N
Cosmos 1943 Rocket 3.8 00:42:56 10° NW 00:46:33 21° W 00:46:33 21° W
SL-8 R/B 4.3 00:42:34 10° WNW 00:46:25 55° NW 00:46:25 55° NW
Cosmos 1408 Rocket 4.3 00:51:09 52° NNW 00:51:09 52° NNW 00:54:41 10° N
Cosmos 1417 Rocket 4.4 00:44:16 10° NNW 00:50:22 71° W 00:50:43 69° WSW
Cosmos 1553 Rocket 3.9 00:49:35 10° N 00:55:58 85° W 00:56:31 76° SSW
CZ-2C R/B 4.3 00:55:21 31° E 00:56:28 34° ENE 01:01:31 10° N
Lacrosse 5 4.2 00:57:21 10° NNW 01:01:15 22° NNE 01:05:09 10° ENE
Cosmos 841 Rocket 3.9 01:07:05 10° N 01:12:14 53° ENE 01:12:30 52° E
Meteor 1-21 Rocket 4.3 01:12:52 67° E 01:12:56 67° E 01:18:36 10° NNE
Cosmos 1743 Rocket 4.3 01:17:15 52° N 01:17:15 52° N 01:20:43 10° N
CZ-2C R/B 2.6 01:10:47 10° NNE 01:16:17 75° E 01:16:17 75° E
NOSS 3-3 (A) 4.3 01:09:29 10° NW 01:16:58 79° WSW 01:18:35 60° S
Meteor 2-2 Rocket 4.5 01:11:26 10° N 01:17:05 60° ENE 01:17:35 58° ESE
NOSS 3-3 (C) 4.3 01:09:36 10° NW 01:17:06 79° WSW 01:18:43 59° SSE
Cosmos 1151 Rocket 4.2 01:14:08 10° N 01:17:28 37° NE 01:17:28 37° NE
Helios 1A Rocket 4.3 01:17:43 10° N 01:20:36 33° NW 01:20:36 33° NW
S3M 4.3 01:16:00 10° NNW 01:22:00 51° W 01:22:20 51° WSW
Cosmos 2266 Rocket 3.9 01:23:05 73° S 01:23:46 90° ESE 01:30:14 10° N
NOSS 3-2 (C) 3.7 01:23:13 53° WSW 01:24:29 66° NW 01:31:09 10° NNE
CENTAUR R/B 3.5 01:24:34 32° ESE 01:24:34 32° ESE 01:30:14 10° NE
Cosmos 2151 4.4 01:25:30 31° ENE 01:25:30 31° ENE 01:28:31 10° NNE
CZ-4C R/B 2.6 01:25:10 49° W 01:26:01 54° NW 01:31:55 10° NNE
In-Cosmos 22 4.1 01:26:03 85° W 01:26:03 85° W 01:31:43 10° N
Timation 2 Rocket 4.2 01:25:47 60° SW 01:27:04 76° WNW 01:33:55 10° NNE
Cosmos 2369 3.6 01:22:38 10° NNW 01:28:07 78° W 01:28:07 78° W
Cosmos 1500 Rocket 4.2 01:35:18 50° NNW 01:35:18 50° NNW 01:38:38 10° N
Cosmos 2344 3.6 01:37:44 54° SSW 01:39:54 88° ESE 01:48:40 10° NE
H-2A R/B 4.2 01:45:24 18° ESE 01:45:24 18° ESE 01:49:16 10° E
Cosmos 836 Rocket 4.4 01:41:23 10° NNW 01:46:38 81° ENE 01:46:38 81° ENE
ASTEX 1 3.6 01:45:30 10° NNE 01:50:22 63° E 01:50:22 63° E
Cosmos 2278 4.4 01:46:00 10° NW 01:50:34 41° W 01:50:34 41° W
Cosmos 1818 4.2 01:47:54 10° NW 01:52:03 42° W 01:52:03 42° W
Cosmos 1437 Rocket 3.8 01:49:41 10° N 01:52:28 43° N 01:52:28 43° N
Cosmos 1980 Rocket 3.2 01:48:29 10° N 01:53:49 41° ENE 01:56:36 25° ESE
ISS 0.1 01:54:04 10° NNW 01:55:33 12° N 01:57:03 10° NNE
Cosmos 1300 4.1 01:56:12 10° N 01:59:19 33° ENE 01:59:19 33° ENE
Cosmos 1441 Rocket 4.2 02:01:01 44° NNW 02:01:01 44° NNW 02:03:55 10° N
ERS-2 4.2 01:57:44 10° NE 02:00:01 22° ENE 02:00:01 22° ENE
Meteor 2-11 Rocket 4.4 02:00:43 10° N 02:06:54 79° E 02:08:16 56° SSE
Cosmos 2082 Rocket 2.5 02:10:39 49° W 02:11:29 54° WNW 02:17:02 10° NNE
Cosmos 1697 Rocket 2.5 02:09:13 10° NNW 02:14:55 83° WSW 02:15:37 69° S
Cosmos 1763 Rocket 4.4 02:10:30 10° NW 02:14:32 35° W 02:14:32 35° W
Cosmos 332 Rocket 4.4 02:13:23 10° N 02:18:05 51° ENE 02:19:18 41° ESE
Cosmos 2242 Rocket 4.3 02:16:35 10° N 02:20:50 45° ENE 02:21:25 43° ESE
BREEZE-M DEB (TANK) 4.4 02:19:04 10° NW 02:21:59 44° NNE 02:30:21 10° ESE
Cosmos 540 Rocket 3.4 02:17:07 10° NNW 02:22:19 83° ENE 02:23:04 66° SE
Cosmos 1833 Rocket 2.9 02:21:45 50° W 02:22:40 57° WNW 02:28:14 10° NNE
SL-08 R/B 4.4 02:21:53 29° ESE 02:23:46 42° ENE 02:28:22 10° N
Cosmos 1805 Rocket 3.6 02:25:25 74° NW 02:25:25 74° NW 02:29:37 10° N
Cosmos 1674 4.5 02:31:57 23° NW 02:31:57 23° NW 02:34:11 10° NNW
Landsat 4 4.4 02:32:13 47° NNW 02:32:13 47° NNW 02:35:01 10° NNW
Aureole 1 Rocket 3.5 02:27:24 10° NNW 02:32:03 67° WSW 02:32:31 64° SW
ATLAS 5 CENTAUR R/B 4.1 02:32:15 12° ESE 02:33:25 13° ESE 02:35:43 10° E
Cosmos 1633 Rocket 3.0 02:34:04 78° ESE 02:34:11 79° E 02:38:38 10° N
Cosmos 1726 2.6 02:31:12 10° N 02:34:21 59° NNE 02:34:21 59° NNE
USA 215 3.2 02:29:12 10° NE 02:35:46 81° SE 02:37:56 46° SW
CZ-2C R/B 4.1 02:36:26 32° W 02:36:26 32° W 02:41:17 10° NNW
Cosmos 1707 Rocket 3.7 02:35:22 10° NNW 02:39:20 59° WNW 02:39:20 59° WNW
Meteor 1-27 4.2 02:35:13 10° NNW 02:41:05 78° W 02:42:34 52° S
Cosmos 1666 Rocket 3.5 02:42:08 68° WNW 02:42:08 68° WNW 02:46:23 10° N
SL-14 R/B 3.3 02:42:29 69° NNW 02:42:29 69° NNW 02:45:56 10° N
Cosmos 1437 4.0 02:44:43 39° NNW 02:44:43 39° NNW 02:47:04 10° N
Lacrosse 5 1.8 02:39:46 10° NW 02:44:52 86° NE 02:48:15 21° SE
BREEZE-M TANK 3.0 02:40:47 10° WSW 02:48:44 63° NNW 02:51:33 10° ENE
Cosmos 1470 Rocket 3.9 02:51:40 49° SE 02:52:33 60° E 02:56:56 10° NNE
SL-16 R/B 3.1 02:48:43 10° NNW 02:54:13 48° ENE 02:59:41 10° SE
Cosmos 1626 3.4 02:53:42 31° ESE 02:54:23 33° E 02:57:48 10° NNE
Cosmos 1703 3.2 02:54:39 76° SE 02:54:50 79° E 02:58:49 10° N
IRS-P3 4.1 02:51:21 10° N 02:56:42 76° WNW 02:58:08 49° SSW
Cosmos 1933 Rocket 3.7 02:56:23 51° SSE 02:57:15 65° E 03:01:37 10° NNE
Cosmos 2058 4.1 02:59:41 30° WNW 02:59:41 30° WNW 03:03:16 10° NNW
Resurs 1-4 Rocket 4.0 02:55:41 10° NE 02:59:54 23° E 03:03:50 11° SE
Cosmos 968 Rocket 3.3 02:59:07 53° SSW 03:00:22 88° WNW 03:05:32 10° NNE
SL-16 R/B 4.0 02:54:56 10° SE 03:00:34 36° ENE 03:06:12 10° N
Cosmos 1386 Rocket 4.4 03:01:20 40° SSW 03:03:43 79° W 03:09:54 10° N
USA 161 3.4 03:05:58 25° NE 03:05:58 25° NE 03:07:30 10° NNE
Cosmos 2322 Rocket 2.5 03:01:43 10° NNW 03:07:21 66° ENE 03:12:54 10° SSE
Cosmos 1271 Rocket 2.9 03:04:58 10° N 03:08:46 67° E 03:09:36 49° SE
Cosmos 371 Rocket 3.2 03:05:17 10° NNW 03:10:09 75° WSW 03:11:43 42° S
Cosmos 1745 Rocket 4.3 03:08:03 37° SW 03:10:13 51° WNW 03:16:25 10° N
Lacrosse 5 rocket 2.6 03:07:32 10° NW 03:11:46 46° NE 03:16:08 10° ESE
CENTAUR R/B 3.2 03:11:44 27° WSW 03:14:49 48° NW 03:21:30 10° NNE
Sich 1 3.9 03:15:33 32° W 03:15:59 33° WNW 03:20:01 10° NNW
Spot 4 Rocket 4.2 03:11:38 10° NNE 03:16:47 68° ESE 03:19:12 31° S
Cosmos 1538 Rocket 4.0 03:12:08 10° NNW 03:17:18 64° WSW 03:19:21 36° S
Nadezhda 1 Rocket 4.2 03:12:16 10° NNW 03:18:12 51° W 03:20:27 35° SW
Cosmos 923 Rocket 4.4 03:15:43 10° NNW 03:20:57 63° ENE 03:26:08 10° SSE
Cosmos 1709 Rocket 4.0 03:18:27 29° S 03:21:55 89° E 03:28:13 10° N
H-2A ROCKET BODY 3.5 03:25:48 15° SSE 03:25:48 15° SSE 03:26:31 10° SE
Okean O Rocket 4.2 03:22:56 10° NE 03:25:35 16° E 03:28:13 10° SE
Cosmos 1680 Rocket 4.1 03:25:33 10° NNW 03:30:42 58° ENE 03:35:50 10° SSE
AQUA 4.2 03:26:19 10° N 03:30:53 48° WNW 03:32:30 34° WSW
Cosmos 1862 Rocket 3.6 03:28:13 10° NNW 03:32:40 65° W 03:34:22 36° SSW
ISS -1.1 03:29:58 10° NW 03:32:50 27° NNE 03:35:42 10° E
Cosmos 1777 Rocket 4.0 03:31:11 34° SSW 03:33:29 73° WNW 03:38:48 10° NNE
ERS-2 3.7 03:31:31 10° NNW 03:34:26 22° WNW 03:34:52 22° WNW
Cosmos 1980 Rocket 3.1 03:32:54 10° NW 03:37:35 27° WSW 03:38:18 26° WSW
Cosmos 2360 Rocket 3.4 03:33:15 10° N 03:38:37 43° ENE 03:43:57 10° SE
Cosmos 773 Rocket 3.9 03:36:08 10° NNW 03:41:15 69° WSW 03:45:20 16° S
CZ-2D R/B 2.6 03:38:33 10° NNE 03:43:43 57° E 03:47:58 15° S
ADEOS 3.8 03:40:27 10° N 03:45:32 54° WNW 03:48:12 27° SW
Cosmos 2221 Rocket 4.0 03:41:25 10° N 03:45:53 64° E 03:50:22 10° SSE
ARIANE 5 R/B 2.4 03:42:35 10° NNE 03:47:43 90° SE 03:50:59 23° SSW
IRS-1D 3.6 03:42:24 10° NNE 03:47:47 81° ESE 03:51:33 20° S
GPS 2-05 Rocket1 3.9 03:49:30 27° SSE 03:49:30 27° SSE 03:52:24 10° ESE
UNK 3.7 03:50:22 10° SSE 03:54:55 82° ENE 03:59:32 10° N
Meteor 1-4 Rocket 3.7 03:53:59 10° NNW 03:57:13 27° W 03:57:48 26° WSW
Cosmos 1869 Rocket 3.7 03:54:31 18° S 03:57:44 75° E 04:02:10 10° N
Cosmos 1455 3.2 03:59:31 10° NNW 04:02:49 28° W 04:03:44 25° WSW
OAO 3 Rocket 3.5 04:01:42 24° WSW 04:04:04 42° S 04:08:31 10° ESE
Cosmos 2181 Rocket 4.5 04:08:52 10° NNW 04:14:34 41° W 04:19:33 14° SSW
ATLAS 5 CENTAUR R/B 1.9 04:13:48 19° SW 04:17:16 74° NW 04:22:33 10° NNE
USA 215 4.4 04:12:33 10° NE 04:18:23 36° NNW 04:24:14 10° W
UNKNOWN OBJECT B 2.7 04:16:21 10° N 04:20:09 79° WNW 04:23:29 14° SSW
COSMOS 2428 3.9 04:15:29 10° NNW 04:20:58 47° ENE 04:26:24 10° SE
Cosmos 1833 4.3 04:16:32 16° SSW 04:21:12 73° WNW 04:26:57 10° NNE
Cosmos 2112 Rocket 4.1 04:19:46 10° NNW 04:24:48 52° WSW 04:29:49 10° S
GENESIS II 4.3 04:20:57 10° NNW 04:25:05 85° ENE 04:29:08 10° SSE
Lacrosse 5 3.4 04:24:28 10° W 04:27:09 15° WSW 04:27:09 15° WSW
Cosmos 1703 Rocket 4.0 04:23:22 10° NNW 04:27:28 40° W 04:31:26 10° SSW
CZ-2D R/B 3.4 04:23:28 10° NNE 04:27:41 89° ESE 04:31:44 10° SSW
Cosmos 1626 4.2 04:28:26 12° W 04:29:56 14° WNW 04:32:04 10° NW
ATLAS CENTAUR R/B 3.0 04:26:06 10° NNW 04:30:36 43° NE 04:34:46 10° ESE
Nadezhda 3 Rocket 4.5 04:25:28 10° N 04:31:36 64° E 04:37:40 10° SSE
Cosmos 1733 Rocket 4.1 04:27:46 10° SSE 04:31:53 45° E 04:36:03 10° NNE
Cosmos 2154 Rocket 4.4 04:27:18 10° S 04:33:33 70° E 04:39:53 10° NNE
SL-16 R/B 3.3 04:33:34 10° NW 04:37:57 23° W 04:42:19 10° SSW
Resurs 1-4 Rocket 2.7 04:34:53 10° N 04:39:53 43° WNW 04:44:53 10° SW
CZ-4B R/B 3.5 04:37:39 10° NNE 04:41:37 59° E 04:45:46 10° S
Meteor 2-3 Rocket 3.8 04:36:21 10° S 04:42:08 85° W 04:47:59 10° N
SL-16 R/B 3.1 04:38:25 10° SSW 04:44:07 37° W 04:49:52 10° NNW
BREEZE-M DEB (TANK) 3.3 04:35:16 11° SW 04:45:40 72° SSE 04:49:02 10° ENE
BREEZE-M DEB (TANK) 2.2 04:43:44 10° NW 04:46:27 51° NNE 04:48:40 10° ESE
Cosmos 2074 Rocket 4.5 04:41:41 10° SSW 04:47:34 44° WNW 04:53:31 10° N
PSLV R/B 3.9 04:46:08 10° N 04:50:01 63° WNW 04:53:59 10° SSW
Cosmos 2322 Rocket 3.7 04:47:23 10° WNW 04:50:44 16° W 04:54:05 10° SW
Lacrosse 5 rocket 2.5 04:47:10 10° WNW 04:50:54 26° SW 04:54:41 10° S
Cosmos 2298 Rocket 4.3 04:49:16 10° SW 04:54:27 53° WNW 04:59:42 10° N
MOZ.5/SAFIR/RUBIN 5/SL-8 3.8 04:51:09 10° SSE 04:55:50 83° W 05:00:34 10° NNW
Okean 1-7 4.0 04:54:57 10° NNW 04:58:47 30° W 05:02:35 10° SSW
Cosmos 2219 Rocket 3.4 04:56:25 10° NNW 05:01:51 49° ENE 05:07:14 10° SE
Okean O Rocket 2.1 04:57:57 10° N 05:02:12 46° WNW 05:06:25 10° SW
Cosmos 1782 3.5 05:00:31 10° N 05:04:31 60° E 05:08:27 10° SSE
SME Rocket 4.4 05:02:12 10° S 05:08:51 39° WSW 05:13:29 10° NW
